Regional Weather Roundup
Issued by NWS

Home | Current Version | Previous Version | Graphics & Text | Print | Product List | Glossary Off
Versions: 1 2 3 4 5 6 7 8 9 10 11 12 13 14 15 16 17 18 19 20 21 22 23 24 25 26 27 28 29 30 31 32 33 34 35 36 37 38 39 40 41 42 43 44 45 46 47 48 49 50

000
ASUS43 KDMX 032308
RWRIA

WEATHER ROUNDUP FOR IOWA
NATIONAL WEATHER SERVICE DES MOINES IA
600 PM CDT TUE MAY 03 2016

NOTE: "FAIR" INDICATES FEW OR NO CLOUDS BELOW 12,000 FEET WITH NO
SIGNIFICANT WEATHER AND/OR OBSTRUCTIONS TO VISIBILITY.

* - THESE STATIONS ARE NOT NWS STATIONS...THUS NOT UNDER NWS
QUALITY CONTROL.  THEY ALSO DO NOT REPORT WEATHER SUCH
AS PRECIPITATION OR FOG.

IAZ001>003-012>014-020>022-031>034-043>046-040000-
   NORTHWEST IOWA

CITY           SKY/WX    TMP DP  RH WIND       PRES   REMARKS
CARROLL *      MOSUNNY   68  45  42 W16G26    29.87F
CHEROKEE *     PTSUNNY   66  45  45 NW15G23   29.86F
DENISON *      MOSUNNY   68  45  42 W17G25    29.87F
LE MARS *      MOSUNNY   68  45  42 W20G26    29.89F
ORANGE CITY *  SUNNY     68  48  49 W21G29    29.86F
SHELDON *      SUNNY     72  41  33 NW20G28   29.82F
SIOUX CITY     SUNNY     69  45  41 NW18G29   29.89F
SPENCER        MOSUNNY   69  41  36 W22       29.82F
STORM LAKE *   SUNNY     66  45  45 W21G32    29.87F
$$

IAZ055>058-069>071-079>083-090>094-040000-
   SOUTHWEST IOWA

CITY           SKY/WX    TMP DP  RH WIND       PRES   REMARKS
ATLANTIC *     MOSUNNY   68  43  40 W17G23    29.90F
AUDUBON *      MOSUNNY   68  41  37 W7G20     29.90F
CLARINDA *       N/A    N/A N/A N/A MISG        N/A
COUNCIL BLFS * MOSUNNY   68  43  40 W12G18    29.92F
CRESTON *      PTSUNNY   66  43  42 W15G23    29.92F
HARLAN  *      MOSUNNY   70  41  35 W22G28    29.93F
LAMONI         MOSUNNY   65  45  48 W13       29.92F
RED OAK *      PTSUNNY   70  43  37 W13       29.92F
SHENANDOAH *   MOSUNNY   70  43  37 W10       29.94F
$$

IAZ047>049-059>061-072>074-084-040000-
   CENTRAL IOWA

CITY           SKY/WX    TMP DP  RH WIND       PRES   REMARKS
AMES           MOSUNNY   67  43  41 W18G26    29.85F
ANKENY *       MOSUNNY   66  43  42 W16G23    29.86F
BOONE *        PTSUNNY   66  43  42 W20       29.85S
CHARITON *     MOSUNNY   66  43  42 W12G18    29.89F
DES MOINES     PTSUNNY   69  42  37 W18G28    29.87F
GRINNELL*      CLOUDY    66  43  42 W18G24    29.85F
KNOXVILLE *    PTSUNNY   66  41  39 W15G22    29.86F
MARSHALLTOWN   CLOUDY    67  44  43 W20G29    29.82F
NEWTON *       MOSUNNY   68  43  40 W16G22    29.85F
PERRY *          N/A     66  45  45 W16G24    29.87F
$$

IAZ004>006-015-016-023>025-035-036-040000-
   NORTH CENTRAL IOWA

CITY           SKY/WX    TMP DP  RH WIND       PRES   REMARKS
ALGONA *       MOSUNNY   68  45  42 W25       29.81F
CLARION *      MOSUNNY   68  43  40 W25G32    29.82F
ESTHERVILLE    MOSUNNY   68  45  43 NW24G30   29.79F
FORT DODGE *   MOSUNNY   66  46  48 W13G26    29.85F
MASON CITY     SUNNY     67  44  43 W23G35    29.79F
FOREST CITY *  PTSUNNY   64  41  42 W22G30    29.78F
WEBSTER CITY * PTSUNNY   66  45  45 W21       29.82F
IOWA FALLS *     N/A     68  43  40 W25G31    29.83F
$$

IAZ007>011-017>019-026>030-037>042-050>054-066-040000-
   NORTHEAST IOWA

CITY           SKY/WX    TMP DP  RH WIND       PRES   REMARKS
CEDAR RAPIDS   CLOUDY    65  43  44 W17       29.82F
CHARLES CITY * MOSUNNY   66  41  39 W18G26    29.78F
CLINTON *      CLOUDY    66  41  40 W17       29.82F
DECORAH *      MOSUNNY   66  37  34 W8G15     29.74F
DUBUQUE        PTSUNNY   64  38  38 W17G26    29.80F
MONTICELLO *   PTSUNNY   66  39  37 W15G24    29.80F
OELWEIN *      PTSUNNY   66  41  39 W23G32    29.78F
WATERLOO       MOSUNNY   67  40  37 W14G23    29.78F
$$

IAZ064-065-067-068-078-040000-
   EAST CENTRAL IOWA

CITY           SKY/WX    TMP DP  RH WIND       PRES   REMARKS
DAVENPORT      MOSUNNY   66  40  38 W20       29.84F
IOWA CITY      CLOUDY    65  42  43 W15       29.85F
MT. PLEASANT * PTSUNNY   68  43  40 W7        29.87F
MUSCATINE *    MOSUNNY   68  39  34 W20       29.85F
QUAD CITIES    CLOUDY    67  39  35 W15       29.83F
$$

IAZ062-063-075>077-085>089-095>099-040000-
   SOUTHEAST IOWA

CITY           SKY/WX    TMP DP  RH WIND       PRES   REMARKS
BURLINGTON     MOSUNNY   66  43  43 W10       29.87F
FAIRFIELD *    PTSUNNY   66  41  39 W16       29.87F
FORT MADISON * MOSUNNY   66  43  42 W13       29.89F
KEOKUK *       PTSUNNY   66  41  39 W9        29.88F
OSKALOOSA *      N/A     66  39  37 W14       29.87F
OTTUMWA        MOSUNNY   65  40  39 W16G25    29.87F
WASHINGTON *   PTSUNNY   66  41  39 W16G22    29.87F
$$

ABBREVIATIONS USED IN REMARKS
   TC - TEMPERATURES IN CELSIUS
  WCI - WIND CHILL INDEX
   HX - HEAT INDEX
  VSB - VISIBILITY
$$




USA.gov is the U.S. government's official web portal to all federal, state and local government web resources and services.